Tracking 19181 objects as of 18-Jun-2018
HD Live streaming from Space Station
objects crossing your sky now

NOAA 1

Track NOAA 1 now!
10-day predictions
NOAA 1 is classified as:


NORAD ID: 4793
Int'l Code: 1970-106A
Perigee: 1,430.5 km
Apogee: 1,479.5 km
Inclination: 101.8 °
Period: 114.8 minutes
Semi major axis: 7826 km
RCS: 3.071 m2 (large)
Launch date: December 11, 1970
Source: United States (US)
Launch site: AIR FORCE WESTERN TEST RANGE (AFWTR)
aabbcc
Your satellite tracking list
Your tracking list is empty




NASA's NSSDC Master Catalog

Two Line Element Set (TLE):
1  4793U 70106A   18168.23709870 -.00000031 +00000-0 +87812-4 0  9992
2  4793 101.7515 235.8101 0031322 273.7894 119.2524 12.53985338174436
Source of the keplerian elements: AFSPC